Notices

What's New in latest Release from April 7th, 2021:

- Updated Glossary, including Speed of Maximum Gust, and Total Hourly Precipitation

- Updated national and regional climate services offices contacts and prices information

- Addition of station inventory lists for 1981-2010, 1971-2000, and 1961-1990 Normals.

If you haven't already, please take our survey and provide feedback about our website: https://eccc.sondage-survey.ca/f/LanguageSelection.aspx?s=442ca660-fcf1-47c0-95a9-59707d6fd709

Hourly Data Report for September 25, 2019

QUALICUM BEACH AIRPORT
BRITISH COLUMBIA
Current Station Operator: ECCC - MSC

49°20'14.000" N
124°23'38.000" W
58.20 m
1026562
71766
VOQ

Download Data

Hourly Data (September 2019)
Hourly Data Report for September 25, 2019
TIME
LST
Temp Definition
°C
Dew Point Definition
°C
Rel Hum Definition
%
Precip. Amount Definition
mm

Wind Dir Definition
10's deg

Wind Spd Definition
km/h
Visibility Definition
km
Stn Press Definition
kPa
Hmdx Definition


Wind Chill Definition


Weather Definition


00:00 12.9 10.3 84 0.0 29 3   101.84     LegendNANA
01:00 14.0 9.5 74 0.0 32 8   101.84     LegendNANA
02:00 13.5 9.5 77 0.0 31 8   101.85     LegendNANA
03:00 13.0 9.0 77 0.0 30 8   101.84     LegendNANA
04:00 12.0 8.7 80 0.0 26 6   101.83     LegendNANA
05:00 11.1 7.9 81 0.0 25 6   101.82     LegendNANA
06:00 9.2 7.8 91 0.0 26 6   101.84     LegendNANA
07:00 9.0 7.7 92 0.0 20 1   101.88     LegendNANA
08:00 13.1 8.3 73 0.0 26 2   101.89     LegendNANA
09:00 15.0 8.9 67 0.0 36 4   101.89     LegendNANA
10:00 14.6 8.3 66 0.0 1 6   101.86     LegendNANA
11:00 14.2 8.9 70 0.0 3 5   101.81     LegendNANA
12:00 14.3 8.6 69 0.0 10 7   101.83     LegendNANA
13:00 14.1 9.8 75 0.0 10 7   101.68     LegendNANA
14:00 14.1 8.8 70 0.0 10 7   101.59     LegendNANA
15:00
16:00 14.2 9.0 71 0.0 11 7   101.36     LegendNANA
17:00 14.1 9.1 72 0.0 9 6   101.26     LegendNANA
18:00 13.7 9.5 76 0.0 9 5   101.11     LegendNANA
19:00 13.3 10.1 81 0.0 10 3   100.99     LegendNANA
20:00 12.9 10.1 83 0.0 14 4   100.86     LegendNANA
21:00 12.3 10.4 88 0.0 12 3   100.73     LegendNANA
22:00 12.2 10.2 88 0.0 27 5   100.54     LegendNANA
23:00 12.3 10.3 87 0.0 35 5   100.33     LegendNANA

Notes on Data Quality.

Legend

  • E = Estimated
  • M = Missing
  • NA = Not Available*
  • [empty] = Indicates an unobserved value
Date modified: